{"data":{"norad_id":43215,"intl_designator":"2018-020A","name":"PAZ","alt_names":[],"object_type":"PAYLOAD","status":"ACTIVE","operator":null,"country":"SPN","launch_date":"2018-02-22","launch_site_code":"AFWTR","launch_vehicle":null,"mission":null,"orbit_class":"UNKNOWN","rcs_meters":null,"size_class":null,"mass_kg":null,"dimensions":null,"purposes":[],"wikipedia_slug":null,"has_3d_model":false,"image_url":null,"decayed_at":null,"tle_current":{"epoch":"2026-09-20T05:18:00.601056Z","epoch_age_seconds":32015,"freshness":"FRESH","line1":"1 43215U 18020A   26263.22084029  .00001133  00000+0  57164-4 0  9996","line2":"2 43215  97.4468 269.2626 0001732  90.2412 269.9021 15.19147078475434","mean_motion":15.19147078,"eccentricity":0.0001732,"inclination_deg":97.4468,"raan_deg":269.2626,"arg_perigee_deg":90.2412,"mean_anomaly_deg":269.9021,"bstar":5.7164e-5,"rev_number":47543,"period_min":94.790031910261,"perigee_km":507.22428490709,"apogee_km":509.60978722519,"semimajor_km":6886.5540360661,"source":"CELESTRAK","updated_at":"2026-09-20T09:00:14.309329Z"}}}